User: anonymous   Login
Location: Dürabuch
(48.2640°N, 11.2185°E)
Time: 00:24:27
(UTC+00:00)
Language:

ADEOS II - Orbit

View from above orbital plane
View from above orbital plane
View from above satellite
View from above satellite

Ground track
Ground track

The orbit data is extracted from the following two-line orbital elements,

1 27597U 02056A   24194.88555819  .00000498  00000-0  21704-3 0  9990
2 27597  98.6924 141.4690 0001151  36.5726 323.5534 14.28406273123909
Epoch (UTC): 12 July 2024 21:15:12
Eccentricity: 0.0001151
inclination: 98.6924°
perigee height: 796 km
apogee height: 798 km
right ascension of ascending node: 141.4690°
argument of perigee: 36.5726°
revolutions per day: 14.28406273
mean anomaly at epoch: 323.5534°
orbit number at epoch: 12390

The dashed part of the orbit path shows where the satellite is in the earth's shadow,  

DLR